Flag for Canada Weather past 2 weeks in Kingston, Ontario, Canada

Now
45 °F

Mostly cloudy.


Feels Like: 37 °F
Forecast: 38 / 50 °F
Wind: 16 mph from Northeast

Location: Kingston

Current Time: Oct 21, 2014 at 9:53:24 PM

Latest Report: Oct 21, 2014 at 9:00 PM


Visibility: 15 mi

Pressure: 30.09 "Hg

Humidity: 76%

Dew point: 37 °F

Location of KingstonLocation

Historic Weather in Kingston — Graph

°F

Kingston temperature yesterday

Maximum temperature yesterday: 54 °F (at 11:00 PM)
Minimum temperature yesterday: 37 °F (at 6:00 AM)
Average temperature yesterday: 48 °F

Past Weeks' High & Low Weather Summary

 TemperatureHumidityPressure
High70 °F (Oct 14, 2:00 PM)100% (Oct 12, 8:00 AM)30.31 "Hg (Oct 12, 8:00 AM)
Low32 °F (Oct 12, 7:00 AM)46% (Oct 19, 3:00 PM)29.47 "Hg (Oct 18, 6:00 AM)
Average54 °F79%29.89 "Hg
* Reported Oct 6 8:00 PM — Oct 21 8:00 PM, Kingston, Weather by CustomWeather, © 2014

Note: Actual official high and low records may vary slightly from our data, if they occured in-between our weather recording intervals... More about our weather records

Advertising

Kingston weather history for previous 24 hours

 ConditionsComfort  
Time TempWeatherWind HumidityBarometerVisibility
8:00 PM
Oct 21
45 °FOvercast.16 mph76%30.06 "Hg15 mi
7:00 PM45 °FMostly cloudy.15 mph76%30.04 "Hg15 mi
6:00 PM45 °FMore clouds than sun.17 mph81%30.01 "Hg12 mi
5:00 PM45 °FMostly cloudy.12 mph87%29.99 "Hg10 mi
4:00 PM45 °FLow clouds.14 mph87%29.97 "Hg8 mi
3:00 PM45 °FLight rain. Fog.16 mph93%29.95 "Hg6 mi
2:00 PM46 °FLight rain. Fog.13 mph93%29.93 "Hg6 mi
1:00 PM46 °FLight rain. Fog.17 mph93%29.92 "Hg6 mi
12:00 PM48 °FLight rain. Fog.13 mph94%29.92 "Hg6 mi
11:00 AM48 °FLight rain. Fog.13 mph94%29.90 "Hg6 mi
10:00 AM48 °FLight rain. Fog.13 mph94%29.89 "Hg6 mi
9:00 AM48 °FLight rain. Low clouds.10 mph100%29.87 "Hg10 mi
8:00 AM52 °FLight rain. Passing clouds.8 mph88%29.85 "Hg8 mi
7:00 AM52 °FLight rain. Mostly cloudy.15 mph88%29.83 "Hg10 mi
6:00 AM52 °FMostly cloudy.15 mph94%29.82 "Hg8 mi
11:00 PM
Oct 20
54 °FSprinkles. Overcast.13 mph77%29.84 "Hg12 mi
10:00 PM52 °FLight rain. Mostly cloudy.9 mph88%29.86 "Hg10 mi
9:00 PM52 °FLight rain. Overcast.8 mph88%29.87 "Hg10 mi
Weather by CustomWeather, © 2014

See weather overviewHow to use our weather pages